GW3359 Weather Reports


time (UTC)temp
C
wind
direction
speed
KPH
gust
KPH
rain 1hr
cm
rain 24hr
cm
rain mn
cm
humidity
%
barometer
mb
20260906022507 27 175 0.0 0.0 0.00 0.00 0.00 77 1011.9
20260906022007 27 178 0.0 0.0 0.00 0.00 0.00 76 1011.9
20260906021514 27 176 0.0 0.0 0.00 0.00 0.00 75 1011.6
20260906021009 27 178 0.0 0.0 0.00 0.00 0.00 75 1011.6
20260906020508 27 177 0.0 0.0 0.00 0.00 0.00 75 1011.6
20260906020004 27 177 0.0 0.0 0.00 0.00 0.00 75 1011.5
20260906015502 28 170 0.0 0.0 0.00 0.00 0.00 74 1011.5
20260906015007 28 176 0.0 1.6 0.00 0.00 0.00 74 1011.6
20260906014523 28 177 0.0 1.6 0.00 0.00 0.00 74 1011.6
20260906014011 28 178 0.0 0.0 0.00 0.00 0.00 74 1011.6
20260906013507 28 178 0.0 1.6 0.00 0.00 0.00 72 1011.5
20260906013019 28 178 0.0 1.6 0.00 0.00 0.00 74 1011.4
20260906012510 28 178 0.0 11.3 0.00 0.00 0.00 73 1011.3
20260906012011 27 177 0.0 11.3 0.00 0.00 0.00 73 1011.4
20260906011532 27 225 1.6 11.3 0.00 0.00 0.00 74 1011.6
20260906011009 27 29 0.0 0.0 0.00 0.00 0.00 74 1011.6
20260906010509 28 30 0.0 0.0 0.00 0.00 0.00 75 1011.5
20260906010020 28 31 0.0 0.0 0.00 0.00 0.00 75 1011.5
20260906005508 28 31 0.0 0.0 0.00 0.00 0.00 74 1011.5
20260906005016 28 31 0.0 0.0 0.00 0.00 0.00 73 1011.4
20260906004512 28 31 0.0 0.0 0.00 0.00 0.00 74 1011.4
20260906004007 28 31 0.0 0.0 0.00 0.00 0.00 74 1011.3
20260906003506 28 31 0.0 0.0 0.00 0.00 0.00 73 1011.4
20260906003014 29 31 0.0 0.0 0.00 0.00 0.00 72 1011.3
20260906002507 29 31 0.0 0.0 0.00 0.00 0.00 72 1011.4
20260906002010 29 31 0.0 0.0 0.00 0.00 0.00 72 1011.4
20260906001520 30 31 0.0 0.0 0.00 0.00 0.00 69 1011.4
20260906001011 30 31 0.0 0.0 0.00 0.00 0.00 70 1011.3
20260906000515 30 31 0.0 0.0 0.00 0.00 0.00 69 1011.3
20260906000024 30 31 0.0 0.0 0.00 0.00 0.00 69 1011.2
20260905235512 31 31 0.0 0.0 0.00 0.00 0.00 68 1011.2
20260905235012 31 31 0.0 0.0 0.00 0.00 0.00 67 1011.2
20260905234525 31 31 0.0 0.0 0.00 0.00 0.00 65 1011.3
20260905234014 31 31 0.0 0.0 0.00 0.00 0.00 65 1011.3
20260905233510 32 31 0.0 0.0 0.00 0.00 0.00 63 1011.3
20260905233015 32 31 0.0 3.2 0.00 0.00 0.00 63 1011.4
20260905232508 32 31 0.0 6.4 0.00 0.00 0.00 61 1011.4
20260905232008 32 31 1.6 6.4 0.00 0.00 0.00 59 1011.2
20260905231518 32 354 0.0 4.8 0.00 0.00 0.00 60 1011.1
20260905231011 33 44 0.0 6.4 0.00 0.00 0.00 61 1011.3
20260905230511 33 342 0.0 6.4 0.00 0.00 0.00 59 1011.2
20260905230031 33 15 0.0 4.8 0.00 0.00 0.00 58 1011.2
20260905225513 34 319 1.6 4.8 0.00 0.00 0.00 57 1011.2
20260905225013 35 323 1.6 6.4 0.00 0.00 0.00 56 1011.1
20260905224530 35 120 0.0 8.0 0.00 0.00 0.00 54 1011.1
20260905224013 35 140 3.2 8.0 0.00 0.00 0.00 51 1011.1
20260905223512 35 56 1.6 6.4 0.00 0.00 0.00 54 1011.2
20260905223031 35 100 3.2 8.0 0.00 0.00 0.00 51 1011.2
20260905222519 35 115 1.6 8.0 0.00 0.00 0.00 50 1011.2
20260905222013 35 59 1.6 6.4 0.00 0.00 0.00 55 1011.2
20260905221516 35 44 1.6 8.0 0.00 0.00 0.00 52 1011.2
20260905221008 35 101 3.2 8.0 0.00 0.00 0.00 52 1011.2
20260905220510 35 46 3.2 9.7 0.00 0.00 0.00 50 1011.2
20260905220024 35 22 1.6 9.7 0.00 0.00 0.00 53 1011.2
20260905215513 35 70 3.2 9.7 0.00 0.00 0.00 48 1011.2
20260905215010 35 44 1.6 4.8 0.00 0.00 0.00 50 1011.2
20260905214530 35 83 0.0 6.4 0.00 0.00 0.00 54 1011.3
20260905214014 36 58 0.0 6.4 0.00 0.00 0.00 52 1011.3
20260905213518 36 38 0.0 8.0 0.00 0.00 0.00 54 1011.3
20260905213039 36 106 0.0 8.0 0.00 0.00 0.00 48 1011.3
20260905212518 35 64 1.6 8.0 0.00 0.00 0.00 50 1011.3
20260905212017 35 24 1.6 8.0 0.00 0.00 0.00 50 1011.3
20260905211534 35 41 3.2 8.0 0.00 0.00 0.00 50 1011.3
20260905211018 35 108 1.6 9.7 0.00 0.00 0.00 51 1011.4
20260905210513 35 71 0.0 11.3 0.00 0.00 0.00 52 1011.4
20260905210021 34 262 3.2 11.3 0.00 0.00 0.00 54 1011.5
20260905205512 34 303 0.0 3.2 0.00 0.00 0.00 57 1011.5
20260905205013 34 303 0.0 3.2 0.00 0.00 0.00 57 1011.6
20260905204527 35 303 0.0 3.2 0.00 0.00 0.00 57 1011.7
20260905204007 35 303 0.0 3.2 0.00 0.00 0.00 55 1011.8
20260905203503 36 303 0.0 9.7 0.00 0.00 0.00 53 1011.8
20260905203006 36 174 0.0 9.7 0.00 0.00 0.00 48 1011.9
20260905202503 36 236 1.6 11.3 0.00 0.00 0.00 49 1011.9
20260905202003 36 27 3.2 11.3 0.00 0.00 0.00 49 1012.0
20260905201510 36 66 4.8 9.7 0.00 0.00 0.00 50 1012.1
20260905201007 35 49 1.6 6.4 0.00 0.00 0.00 52 1012.2
20260905200507 35 38 0.0 4.8 0.00 0.00 0.00 52 1012.3
20260905200017 35 7 0.0 3.2 0.00 0.00 0.00 54 1012.4
20260905195509 35 127 0.0 3.2 0.00 0.00 0.00 52 1012.5
20260905195009 35 127 0.0 4.8 0.00 0.00 0.00 52 1012.5
20260905194524 35 127 0.0 4.8 0.00 0.00 0.00 52 1012.6
20260905194011 35 57 1.6 3.2 0.00 0.00 0.00 54 1012.6
20260905193516 35 57 0.0 8.0 0.00 0.00 0.00 53 1012.7
20260905193029 35 22 3.2 11.3 0.00 0.00 0.00 51 1012.7
20260905192504 35 105 0.0 11.3 0.00 0.00 0.00 50 1012.7
20260905192004 35 165 1.6 4.8 0.00 0.00 0.00 53 1012.7
20260905191509 35 18 0.0 3.2 0.00 0.00 0.00 54 1012.8
20260905191004 35 18 0.0 6.4 0.00 0.00 0.00 52 1012.9
20260905190503 35 38 1.6 8.0 0.00 0.00 0.00 48 1013.1
20260905190013 35 91 1.6 8.0 0.00 0.00 0.00 46 1013.2
20260905185507 35 266 0.0 9.7 0.00 0.00 0.00 50 1013.2
20260905185009 35 147 1.6 9.7 0.00 0.00 0.00 48 1013.3
20260905184521 35 49 0.0 4.8 0.00 0.00 0.00 51 1013.3
20260905184010 35 2 1.6 8.0 0.00 0.00 0.00 51 1013.4
20260905183512 35 234 3.2 8.0 0.00 0.00 0.00 48 1013.6
20260905183028 35 266 0.0 6.4 0.00 0.00 0.00 51 1013.7
20260905182514 35 192 1.6 6.4 0.00 0.00 0.00 50 1013.8
20260905182016 35 38 1.6 4.8 0.00 0.00 0.00 51 1013.8
20260905181535 35 68 0.0 3.2 0.00 0.00 0.00 53 1013.9
20260905181004 35 68 0.0 4.8 0.00 0.00 0.00 52 1014.0
20260905180506 35 68 0.0 6.4 0.00 0.00 0.00 54 1014.1
20260905180014 35 11 0.0 6.4 0.00 0.00 0.00 51 1014.1
20260905175507 35 56 1.6 4.8 0.00 0.00 0.00 52 1014.0
20260905175006 34 266 0.0 6.4 0.00 0.00 0.00 54 1014.1
20260905174523 34 181 0.0 6.4 0.00 0.00 0.00 53 1014.1
20260905174010 34 111 3.2 6.4 0.00 0.00 0.00 53 1014.2
20260905173512 34 108 0.0 8.0 0.00 0.00 0.00 56 1014.2
20260905173023 33 264 1.6 8.0 0.00 0.00 0.00 56 1014.3
20260905172512 33 240 1.6 4.8 0.00 0.00 0.00 57 1014.3
20260905172016 33 256 1.6 6.4 0.00 0.00 0.00 55 1014.3
20260905171529 33 179 0.0 6.4 0.00 0.00 0.00 58 1014.4
20260905171017 33 223 0.0 6.4 0.00 0.00 0.00 57 1014.4
20260905170515 33 202 1.6 8.0 0.00 0.00 0.00 60 1014.4
20260905170034 33 264 3.2 8.0 0.00 0.00 0.00 61 1014.4
20260905165507 32 50 0.0 9.7 0.00 0.00 0.00 62 1014.5
20260905165003 32 66 3.2 9.7 0.00 0.00 0.00 62 1014.6
20260905164516 32 37 1.6 4.8 0.00 0.00 0.00 62 1014.6
20260905164008 31 258 1.6 8.0 0.00 0.00 0.00 64 1014.7
20260905163508 31 81 0.0 8.0 0.00 0.00 0.00 65 1014.9
20260905163024 31 188 1.6 8.0 0.00 0.00 0.00 67 1014.9
20260905162515 31 44 0.0 8.0 0.00 0.00 0.00 68 1014.9
20260905162013 30 233 0.0 8.0 0.00 0.00 0.00 69 1015.0
20260905161530 30 277 0.0 8.0 0.00 0.00 0.00 68 1015.0
20260905161014 30 233 3.2 6.4 0.00 0.00 0.00 70 1015.1
20260905160515 30 293 0.0 8.0 0.00 0.00 0.00 73 1015.1
20260905160040 29 117 0.0 8.0 0.00 0.00 0.00 76 1015.1
20260905155517 29 266 0.0 4.8 0.00 0.00 0.00 76 1015.2
20260905155014 29 266 0.0 4.8 0.00 0.00 0.00 75 1015.2
20260905154534 28 75 1.6 4.8 0.00 0.00 0.00 75 1015.2
20260905154008 28 182 0.0 6.4 0.00 0.00 0.00 76 1015.2
20260905153508 28 255 1.6 6.4 0.00 0.00 0.00 77 1015.3
20260905153022 28 152 0.0 6.4 0.00 0.00 0.00 79 1015.3
20260905152512 27 179 1.6 9.7 0.00 0.00 0.00 80 1015.3
20260905152011 27 233 3.2 9.7 0.00 0.00 0.00 79 1015.4
20260905151530 27 98 0.0 1.6 0.00 0.00 0.00 81 1015.4
20260905151013 27 98 0.0 0.0 0.00 0.00 0.00 84 1015.4
20260905150514 27 98 0.0 0.0 0.00 0.00 0.00 84 1015.5
20260905150032 27 98 0.0 0.0 0.00 0.00 0.00 85 1015.5
20260905145516 26 98 0.0 0.0 0.00 0.00 0.00 85 1015.5
20260905145016 26 98 0.0 0.0 0.00 0.00 0.00 86 1015.7
20260905144536 26 98 0.0 0.0 0.00 0.00 0.00 86 1015.7
20260905144016 26 98 0.0 0.0 0.00 0.00 0.00 85 1015.7
20260905143508 26 98 0.0 0.0 0.00 0.00 0.00 87 1015.7
20260905143018 26 97 0.0 0.0 0.00 0.00 0.00 86 1015.6
20260905142512 25 96 0.0 0.0 0.00 0.00 0.00 87 1015.6
20260905142007 25 96 0.0 0.0 0.00 0.00 0.00 87 1015.6
20260905141527 25 96 0.0 0.0 0.00 0.00 0.00 88 1015.6
20260905141002 25 96 0.0 3.2 0.00 0.00 0.00 88 1015.5
20260905140504 25 98 0.0 3.2 0.00 0.00 0.00 89 1015.5
20260905140006 25 98 0.0 1.6 0.00 0.00 0.00 89 1015.5
20260905135504 24 98 0.0 1.6 0.00 0.00 0.00 89 1015.4
20260905135004 24 98 0.0 3.2 0.00 0.00 0.00 89 1015.5
20260905134510 24 98 0.0 3.2 0.00 0.00 0.00 90 1015.6
20260905134003 24 98 0.0 3.2 0.00 0.00 0.00 90 1015.6
20260905133508 23 98 1.6 3.2 0.00 0.00 0.00 91 1015.5
20260905133016 23 335 0.0 0.0 0.00 0.00 0.00 92 1015.5
20260905132508 23 335 0.0 0.0 0.00 0.00 0.00 92 1015.6
20260905132008 23 335 0.0 0.0 0.00 0.00 0.00 92 1015.6
20260905131528 23 335 0.0 0.0 0.00 0.00 0.00 92 1015.5
20260905131013 23 335 0.0 0.0 0.00 0.00 0.00 92 1015.5
20260905130512 23 335 0.0 0.0 0.00 0.00 0.00 92 1015.6
20260905130028 23 335 0.0 0.0 0.00 0.00 0.00 92 1015.6
20260905125505 22 335 0.0 0.0 0.00 0.00 0.00 92 1015.6
20260905125003 22 335 0.0 0.0 0.00 0.00 0.00 92 1015.8
20260905124507 22 335 0.0 0.0 0.00 0.00 0.00 92 1015.8
20260905124003 22 335 0.0 0.0 0.00 0.00 0.00 92 1015.7
20260905123503 22 335 0.0 0.0 0.00 0.00 0.00 92 1015.7
20260905123012 22 335 0.0 0.0 0.00 0.00 0.00 92 1015.6
20260905122506 22 335 0.0 0.0 0.00 0.00 0.00 92 1015.5
20260905122007 22 335 0.0 0.0 0.00 0.00 0.00 91 1015.4
20260905121520 22 335 0.0 0.0 0.00 0.00 0.00 91 1015.3
20260905121013 22 335 0.0 0.0 0.00 0.00 0.00 91 1015.3
20260905120509 22 335 0.0 0.0 0.00 0.00 0.00 91 1015.3
20260905120026 22 335 0.0 0.0 0.00 0.00 0.00 91 1015.3
20260905115512 22 335 0.0 0.0 0.00 0.00 0.00 91 1015.2
20260905115015 22 335 0.0 0.0 0.00 0.00 0.00 91 1015.2
20260905114539 22 335 0.0 0.0 0.00 0.00 0.00 91 1015.1
20260905114003 22 335 0.0 0.0 0.00 0.00 0.00 91 1015.0
20260905113504 22 335 0.0 0.0 0.00 0.00 0.00 91 1015.0
20260905113017 22 335 0.0 0.0 0.00 0.00 0.00 91 1014.9
20260905112504 22 335 0.0 0.0 0.00 0.00 0.00 91 1014.8
20260905112003 22 335 0.0 0.0 0.00 0.00 0.00 91 1014.7
20260905111517 22 335 0.0 0.0 0.00 0.00 0.00 91 1014.7
20260905111010 22 335 0.0 0.0 0.00 0.00 0.00 91 1014.6
20260905110508 22 335 0.0 0.0 0.00 0.00 0.00 91 1014.5
20260905110023 22 335 0.0 0.0 0.00 0.00 0.00 91 1014.4
20260905105512 22 335 0.0 0.0 0.00 0.00 0.00 91 1014.3
20260905105013 22 335 0.0 0.0 0.00 0.00 0.00 91 1014.4
20260905104530 22 335 0.0 0.0 0.00 0.00 0.00 91 1014.4
20260905104013 22 335 0.0 0.0 0.00 0.00 0.00 91 1014.4
20260905103516 22 335 0.0 0.0 0.00 0.00 0.00 91 1014.3
20260905103034 22 335 0.0 0.0 0.00 0.00 0.00 91 1014.1
20260905102503 22 335 0.0 0.0 0.00 0.00 0.00 91 1014.1
20260905102009 22 335 0.0 0.0 0.00 0.00 0.00 91 1014.1
20260905101520 22 335 0.0 0.0 0.00 0.00 0.00 91 1014.1
20260905101006 22 335 0.0 0.0 0.00 0.00 0.00 91 1014.0
20260905100510 22 335 0.0 0.0 0.00 0.00 0.00 91 1014.0
20260905100024 22 327 0.0 0.0 0.00 0.00 0.00 91 1014.0
20260905095510 22 329 0.0 0.0 0.00 0.00 0.00 90 1014.0
20260905095011 22 330 0.0 0.0 0.00 0.00 0.00 90 1014.0
20260905094525 22 330 0.0 0.0 0.00 0.00 0.00 90 1014.0
20260905094013 22 330 0.0 0.0 0.00 0.00 0.00 90 1014.0
20260905093514 22 331 0.0 0.0 0.00 0.00 0.00 90 1013.9
20260905093033 22 331 0.0 0.0 0.00 0.00 0.00 90 1014.0
20260905092515 22 331 0.0 0.0 0.00 0.00 0.00 90 1014.0
20260905092015 22 331 0.0 0.0 0.00 0.00 0.00 90 1014.0
20260905091533 22 332 0.0 0.0 0.00 0.00 0.00 90 1014.0
20260905091006 22 332 0.0 0.0 0.00 0.00 0.00 89 1014.0
20260905090506 22 332 0.0 0.0 0.00 0.00 0.00 90 1013.9
20260905090020 22 333 0.0 0.0 0.00 0.00 0.00 90 1013.9
20260905085513 22 333 0.0 0.0 0.00 0.00 0.00 90 1014.0
20260905085011 22 333 0.0 0.0 0.00 0.00 0.00 90 1014.0
20260905084528 22 333 0.0 0.0 0.00 0.00 0.00 89 1014.0
20260905084014 22 333 0.0 0.0 0.00 0.00 0.00 89 1014.0
20260905083512 22 333 0.0 0.0 0.00 0.00 0.00 89 1014.0
20260905083037 22 333 0.0 0.0 0.00 0.00 0.00 89 1014.0
20260905082513 22 333 0.0 0.0 0.00 0.00 0.00 89 1014.1
20260905082016 22 333 0.0 0.0 0.00 0.00 0.00 89 1014.1
20260905081532 22 333 0.0 0.0 0.00 0.00 0.00 89 1014.2
20260905081017 22 333 0.0 0.0 0.00 0.00 0.00 89 1014.1
20260905080504 22 333 0.0 0.0 0.00 0.00 0.00 89 1014.1
20260905080014 22 333 0.0 0.0 0.00 0.00 0.00 89 1014.2
20260905075508 22 333 0.0 0.0 0.00 0.00 0.00 89 1014.2
20260905075008 22 333 0.0 0.0 0.00 0.00 0.00 89 1014.1
20260905074526 23 333 0.0 0.0 0.00 0.00 0.00 89 1014.1
20260905074006 23 333 0.0 0.0 0.00 0.00 0.00 89 1014.1
20260905073504 23 333 0.0 0.0 0.00 0.00 0.00 89 1014.1
20260905073004 23 333 0.0 0.0 0.00 0.00 0.00 89 1014.1
20260905072505 23 333 0.0 0.0 0.00 0.00 0.00 89 1014.2
20260905072003 23 333 0.0 0.0 0.00 0.00 0.00 89 1014.2
20260905071510 23 333 0.0 0.0 0.00 0.00 0.00 89 1014.3
20260905071006 23 333 0.0 0.0 0.00 0.00 0.00 89 1014.3
20260905070504 23 333 0.0 0.0 0.00 0.00 0.00 89 1014.2
20260905070017 23 333 0.0 0.0 0.00 0.00 0.00 89 1014.2
20260905065505 23 334 0.0 0.0 0.00 0.00 0.00 89 1014.2
20260905065007 23 334 0.0 0.0 0.00 0.00 0.00 89 1014.3
20260905064528 23 334 0.0 0.0 0.00 0.00 0.00 89 1014.3
20260905064008 23 334 0.0 0.0 0.00 0.00 0.00 89 1014.3
20260905063509 23 334 0.0 0.0 0.00 0.00 0.00 89 1014.1
20260905063028 23 334 0.0 0.0 0.00 0.00 0.00 89 1014.0
20260905062504 23 334 0.0 0.0 0.00 0.00 0.00 89 1014.2
20260905062004 23 334 0.0 0.0 0.00 0.00 0.00 89 1014.4
20260905061505 23 334 0.0 0.0 0.00 0.00 0.00 89 1014.4
20260905061003 23 334 0.0 0.0 0.00 0.00 0.00 89 1014.3
20260905060505 23 334 0.0 0.0 0.00 0.00 0.00 89 1014.2
20260905060018 23 334 0.0 0.0 0.00 0.00 0.00 89 1014.2
20260905055505 23 334 0.0 0.0 0.00 0.00 0.00 89 1014.2
20260905055007 23 334 0.0 0.0 0.00 0.00 0.00 89 1014.3
20260905054516 23 334 0.0 0.0 0.00 0.00 0.00 89 1014.4
20260905054010 23 334 0.0 0.0 0.00 0.00 0.00 88 1014.4
20260905053509 23 334 0.0 0.0 0.00 0.00 0.00 88 1014.3
20260905053030 23 334 0.0 0.0 0.00 0.00 0.00 88 1014.3
20260905052517 23 334 0.0 0.0 0.00 0.00 0.00 88 1014.4
20260905052012 23 334 0.0 0.0 0.00 0.00 0.00 88 1014.4
20260905051529 23 334 0.0 0.0 0.00 0.00 0.00 88 1014.4
20260905051003 23 334 0.0 0.0 0.00 0.00 0.00 88 1014.3
20260905050505 23 334 0.0 0.0 0.00 0.00 0.00 88 1014.4
20260905050012 23 334 0.0 0.0 0.00 0.00 0.00 87 1014.4
20260905045506 23 334 0.0 0.0 0.00 0.00 0.00 87 1014.4
20260905045004 23 335 0.0 0.0 0.00 0.00 0.00 87 1014.5
20260905044516 24 335 0.0 0.0 0.00 0.00 0.00 87 1014.5
20260905044010 24 335 0.0 0.0 0.00 0.00 0.00 87 1014.5
20260905043510 24 335 0.0 0.0 0.00 0.00 0.00 87 1014.6
20260905043021 24 335 0.0 0.0 0.00 0.00 0.00 87 1014.5
20260905042511 24 335 0.0 0.0 0.00 0.00 0.00 87 1014.6
20260905042013 24 330 0.0 0.0 0.00 0.00 0.00 86 1014.6
20260905041530 24 332 0.0 0.0 0.00 0.00 0.00 86 1014.7
20260905041015 24 333 0.0 0.0 0.00 0.00 0.00 86 1014.7
20260905040513 24 333 0.0 0.0 0.00 0.00 0.00 86 1014.8
20260905040028 24 333 0.0 0.0 0.00 0.00 0.00 86 1014.8
20260905035506 24 333 0.0 0.0 0.00 0.00 0.00 86 1014.7
20260905035004 24 334 0.0 0.0 0.00 0.00 0.00 85 1014.7
20260905034512 24 334 0.0 0.0 0.00 0.00 0.00 85 1014.5
20260905034003 24 334 0.0 0.0 0.00 0.00 0.00 85 1014.6
20260905033507 24 334 0.0 0.0 0.00 0.00 0.00 84 1014.7
20260905033018 25 334 0.0 0.0 0.00 0.00 0.00 84 1014.7
20260905032510 25 334 0.0 0.0 0.00 0.00 0.00 84 1014.6
20260905032009 25 334 0.0 0.0 0.00 0.00 0.00 84 1014.9
20260905031529 25 334 0.0 0.0 0.00 0.00 0.00 84 1014.9
20260905031015 25 330 0.0 0.0 0.00 0.00 0.00 84 1015.0
20260905030516 25 332 0.0 0.0 0.00 0.00 0.00 84 1015.0
20260905030036 25 333 0.0 0.0 0.00 0.00 0.00 84 1015.2
20260905025515 25 334 0.0 0.0 0.00 0.00 0.00 84 1015.1
20260905025015 25 334 0.0 0.0 0.00 0.00 0.00 83 1015.2
20260905024534 25 334 0.0 0.0 0.00 0.00 0.00 83 1015.2
20260905024008 25 334 0.0 0.0 0.00 0.00 0.00 83 1015.2
20260905023505 25 334 0.0 0.0 0.00 0.00 0.00 83 1015.2
20260905023016 25 334 0.0 0.0 0.00 0.00 0.00 83 1015.1